Lid_Strength_Index
4 4 5 5 4 4 3 3 3 3 3 4 3 3 3 3 3 4 4 5 5 5 5 6 6 6 6 5 5 4 3 2
5 5 5 5 4 4 4 4 4 4 4 4 4 4 4 5 5 5 6 6 7 7 6 6 6 7 7 6 6 6 4 3
5 5 5 5 5 5 5 5 4 4 5 4 5 5 5 5 6 7 6 6 6 6 6 6 6 6 7 7 6 6 5 5
6 6 6 5 6 6 6 5 5 5 5 5 5 6 6 6 6 6 6 6 6 6 6 6 7 7 8 8 7 7 7 6
6 6 6 6 6 6 7 6 5 5 6 6 6 6 6 6 6 6 6 6 6 6 6 6 5 6 7 8 7 6 7 6
6 6 6 6 7 7 7 6 6 6 6 7 6 6 6 6 6 6 6 7 7 6 5 5 5 6 7 8 8 6 6 5
6 7 7 7 7 8 8 9 8 8 8 7 6 6 7 6 6 7 6 7 8 6 5 4 5 5 7 8 7 6 6 5
7 7 7 8 8 8 10 10 10 10 8 8 7 7 7 7 7 8 7 8 7 6 5 4 5 5 7 8 7 6 6 5
7 7 9 9 9 10 11 11 12 10 9 9 8 7 7 7 7 7 7 7 6 5 4 4 3 4 4 7 7 4 5 5
8 8 8 8 10 11 12 12 11 11 11 10 8 7 7 8 7 7 6 6 5 5 5 3 2 2 3 4 7 8 5 3
7 8 8 10 12 12 13 12 12 12 11 11 9 8 8 8 7 7 6 5 5 3 4 4 3 1 1 5 6 7 7 7
7 8 9 11 12 13 13 13 12 13 12 11 9 10 10 8 8 6 5 6 5 5 5 5 4 3 3 2 1 1 5 5
9 10 11 12 12 13 12 13 13 14 13 12 11 11 11 9 8 7 6 5 6 6 6 6 7 7 6 7 8 7 7 8
10 12 12 12 12 13 13 12 13 14 14 13 12 12 11 9 8 7 8 9 9 10 11 9 8 9 10 11 11 12 12 11
12 12 13 13 13 13 13 13 13 14 15 14 14 13 12 11 10 9 8 6 8 8 10 10 11 11 11 12 12 11 10 7
12 13 13 13 13 13 13 13 13 12 14 14 14 13 13 13 12 11 8 9 9 7 7 11 11 11 11 10 10 8 2 3
12 13 13 13 14 14 13 12 12 12 11 14 15 14 14 14 13 13 11 10 11 10 7 10 10 11 10 9 8 2 2 2
12 12 12 13 13 12 11 11 10 10 11 12 13 14 15 15 15 14 14 13 12 11 11 11 12 10 10 10 7 5 3 2
10 12 12 12 12 11 11 11 10 10 10 10 12 11 11 15 15 15 15 15 14 13 12 12 15 12 12 11 10 9 6 4
10 11 12 11 12 11 11 12 11 11 11 11 11 11 11 11 12 14 14 15 16 15 14 12 14 12 13 13 12 12 10 7